Other Public Products
Issued by NWS Charleston, SC

Current Version | Previous Version | Text Only | Print | Product List | Glossary On
Versions: 1 2 3 4 5 6 7 8 9 10 11 12 13 14 15 16 17 18 19 20 21 22 23 24 25 26 27 28 29 30 31 32 33 34 35 36 37 38 39 40 41 42 43 44 45 46 47 48 49 50
451
FPUS82 KCHS 280527
OPUCHS

TEST...KCHS/KSAV Gateway Observations...TEST
National Weather Service Charleston SC
100 AM EDT FRI JUL 28 2017

NOTE: "fair" indicates few or no clouds below 12,000 feet with no
significant weather and/or obstructions to visibility.

SCZ050-WAZ558-NCZ071-TXZ119-213-PAZ071-DCZ001-FLZ074-172-MI076-
NYZ176-178-MAZ016-IL014-TNZ027-NJZ106-GAZ044-MD014-280600-

...Gateway Observations for Charleston International...

CITY           SKY/WX    TMP DP  RH WIND       PRES   REMARKS
Chas Airport   PTCLDY    78  75  90 S5        29.94F
Seattle        PTCLDY    63  55  75 N7        30.11R
Charlotte      MOCLDY    77  74  90 SW3       29.94F
Dallas DFW     MOCLDY    87  68  52 S9        29.90S HX  90
Dallas Love    MOCLDY    90  67  46 S14       29.91S HX  93
Philladelphia  PTCLDY    73  69  87 CALM      29.86F
Wash National  MOCLDY    79  76  90 S5        29.84F
Baltimore      MOCLDY    77  71  82 CALM      29.84F
Miami          MOCLDY    85  76  74 SW3       29.99F HX  94
Detroit        MOCLDY    69  59  70 NE9       29.94S
Newark         MOCLDY    74  69  85 CALM      29.86F
Laguardia      CLOUDY    75  71  87 SW5       29.86S
J F K          CLOUDY    74  71  91 SW7       29.88S
Boston Logan   PTCLDY    67  66  97 SW12      29.84F
Ft. Lauderdale PTCLDY    84  79  84 SE9       29.98F HX  96
Chicago O`Hare PTCLDY    70  60  70 N9        29.94S
Chicago Midway PTCLDY    72  62  71 N12       29.93S
Houston Bush   CLEAR     83  74  74 S7        29.96R
Houston Hobby  PTCLDY    83  75  77 SW7       29.96R HX  90
Nashville      CLOUDY    80  72  76 W5        29.91F
Atlanta        MOCLDY    76  72  87 S3        29.97F

$$

GAZ044-118-TXZ119-213-NCZ071-DCZ001-MDZ014-506-PAZ021-071-NJZ106-
NYZ176-178-MAZ106-OHZ011-021-055-MIZ076-KYZ091-ILZ014-INZ047-
MNZ060-ONZ431-280600-

...Gateway Observations for Savannah International...

CITY           SKY/WX    TMP DP  RH WIND       PRES   REMARKS
Savannah Arpt  CLOUDY    78  74  87 CALM      29.94F
Atlanta        MOCLDY    76  72  87 S3        29.97F
Charlotte      MOCLDY    77  74  90 SW3       29.94F
Dallas DFW     MOCLDY    87  68  52 S9        29.90S HX  90
Houston Bush   CLEAR     83  74  74 S7        29.96R
Wash National  MOCLDY    79  76  90 S5        29.84F
Wash Dulles    PTCLDY    74  72  93 CALM      29.86S
Baltimore      MOCLDY    77  71  82 CALM      29.84F
Philadelphia   PTCLDY    73  69  87 CALM      29.86F
Newark         MOCLDY    74  69  85 CALM      29.86F
Laguardia      CLOUDY    75  71  87 SW5       29.86S
J F K          CLOUDY    74  71  91 SW7       29.88S
Boston         PTCLDY    67  66  97 SW12      29.84F
Pittsburg      CLOUDY    71  70  96 CALM      29.90S
Akron          CLOUDY    70  67  90 NW3       29.90F FOG
Cleveland      MOCLDY    74  68  81 N6        29.91S
Cincinnati     CLOUDY    74  74 100 NW3       29.87S
Columbus       CLOUDY    70  70 100 NE6       29.86S
Detroit        MOCLDY    69  59  70 NE9       29.94S
Chicago O`Hare PTCLDY    70  60  70 N9        29.94S
Minneapolis    PTCLDY    74  60  61 NE3       30.05R
Indianapolis   MOCLDY    74  73  97 NW3       29.86R FOG
Toronto Canada PTCLDY    64  59  82 N13       29.93S

$$




USA.gov is the U.S. government's official web portal to all federal, state and local government web resources and services.